Tracking 25711 objects as of 22-May-2022
HD Live streaming from Space Station
objects crossing your sky now

USA 325

Track USA 325 now!


NORAD ID: 51281
Int'l Code: 2022-006B
Perigee: 35,765.9 km
Apogee: 35,818.9 km
Inclination: 0.1 °
Period: 1,436.0 minutes
Semi major axis: 42163 km
RCS: Unknown
Launch date: January 21, 2022
Source: United States (US)
Launch site: AIR FORCE EASTERN TEST RANGE (AFETR)
aabbcc
Your satellite tracking list
Your tracking list is empty




NASA's NSSDC Master Catalog

Two Line Element Set (TLE):
1 51281U 22006B   22122.35802073 -.00000268  00000-0  00000+0 0  9990
2 51281   0.1302 128.0216 0006288 295.0272 242.0247  1.00276644   995
Source of the keplerian elements: McCants